Retour au catalogue

STARLINK-31849

ActifCommunicationsVLEO
NORAD 59734·PAYLOAD·🇺🇸 United States

Lancé May 13, 2024 depuis Cape Canaveral Space Force Station

Loading…

Prochains Passages (prochaines 24 heures)

TLE

FraisSource: CelesTrak SupGP

Époque: Sep 15, 2026, 02:30 UTC

1 59734C 24090E   26258.10465278 -.00077634  00000+0 -28119-2 0  2588
2 59734  43.0016 186.8929 0001338 278.0926 252.0123 15.27616919    19

Suivez STARLINK-31849 en temps réel avec AllMySat

Download on the App Store